• In Romania
  • List of Countries
  • For 7 days
  • Water Temperature
  • Satellite Maps
  • Weather Map
  • Weather Widgets
  • user-avatar
    Login

    Hourly Weather Ilme

    Today, 19 August, Sunday

    Time Temperature Precipitation Wind Pressure Humidity
    00:00 +18°C° 0 mm 4 mps 750 mmHg 86%
    01:00 +18°C° 0 mm 4 mps 750 mmHg 88%
    02:00 +18°C° 0 mm 4 mps 750 mmHg 88%
    03:00 +17°C° 0.1 mm 4 mps 750 mmHg 88%
    04:00 +17°C° 0.1 mm 4 mps 749 mmHg 88%
    05:00 +15°C° 0.1 mm 4 mps 749 mmHg 88%
    06:00 +16°C° 0.1 mm 5 mps 749 mmHg 83%
    07:00 +17°C° 0.1 mm 5 mps 749 mmHg 79%
    08:00 +19°C° 0.1 mm 6 mps 748 mmHg 74%
    09:00 +17°C° 1.3 mm 6 mps 748 mmHg 80%
    10:00 +17°C° 1.3 mm 5 mps 748 mmHg 87%
    11:00 +16°C° 1.3 mm 5 mps 748 mmHg 93%
    12:00 +17°C° 1 mm 5 mps 748 mmHg 89%
    13:00 +19°C° 1 mm 6 mps 747 mmHg 86%
    14:00 +19°C° 1 mm 6 mps 747 mmHg 83%
    15:00 +20°C° 0.2 mm 5 mps 747 mmHg 77%
    16:00 +21°C° 0.2 mm 5 mps 747 mmHg 71%
    17:00 +21°C° 0.2 mm 4 mps 747 mmHg 64%
    18:00 +20°C° 0 mm 4 mps 747 mmHg 67%
    19:00 +19°C° 0 mm 3 mps 747 mmHg 69%
    20:00 +17°C° 0 mm 3 mps 747 mmHg 72%
    21:00 +17°C° 0 mm 3 mps 748 mmHg 70%
    22:00 +16°C° 0 mm 3 mps 748 mmHg 69%
    23:00 +16°C° 0 mm 3 mps 748 mmHg 68%

    Tomorrow, 20 August, Monday

    Time Temperature Precipitation Wind Pressure Humidity
    00:00 +14°C° 0 mm 3 mps 749 mmHg 68%
    01:00 +13°C° 0 mm 3 mps 749 mmHg 69%
    02:00 +13°C° 0 mm 2 mps 749 mmHg 70%
    03:00 +13°C° 0 mm 2 mps 749 mmHg 70%
    04:00 +13°C° 0 mm 2 mps 749 mmHg 70%
    05:00 +13°C° 0 mm 1 mps 749 mmHg 70%
    06:00 +15°C° 0 mm 1 mps 749 mmHg 64%
    07:00 +16°C° 0 mm 1 mps 749 mmHg 58%
    08:00 +19°C° 0 mm 1 mps 749 mmHg 52%
    09:00 +20°C° 0 mm 1 mps 749 mmHg 48%
    10:00 +21°C° 0 mm 1 mps 749 mmHg 43%
    11:00 +21°C° 0 mm 2 mps 748 mmHg 39%
    12:00 +21°C° 0 mm 2 mps 748 mmHg 43%
    13:00 +20°C° 0 mm 2 mps 747 mmHg 46%
    14:00 +20°C° 0 mm 3 mps 747 mmHg 50%
    15:00 +19°C° 0.1 mm 3 mps 746 mmHg 56%
    16:00 +18°C° 0.1 mm 3 mps 746 mmHg 63%
    17:00 +18°C° 0.1 mm 3 mps 745 mmHg 69%
    18:00 +17°C° 1 mm 2 mps 744 mmHg 76%
    19:00 +16°C° 1 mm 2 mps 743 mmHg 83%
    20:00 +15°C° 1 mm 2 mps 743 mmHg 89%
    21:00 +15°C° 0.1 mm 2 mps 742 mmHg 90%
    22:00 +14°C° 0.1 mm 3 mps 742 mmHg 90%
    23:00 +13°C° 0.1 mm 3 mps 741 mmHg 91%

    Day after tomorrow, 21 August, Tuesday

    Time Temperature Precipitation Wind Pressure Humidity
    00:00 +13°C° 0.7 mm 3 mps 741 mmHg 91%
    01:00 +13°C° 0.7 mm 3 mps 741 mmHg 91%
    02:00 +13°C° 0.7 mm 3 mps 741 mmHg 91%
    03:00 +12°C° 0.6 mm 3 mps 741 mmHg 90%
    04:00 +12°C° 0.6 mm 3 mps 741 mmHg 90%
    05:00 +12°C° 0.6 mm 3 mps 741 mmHg 89%
    06:00 +12°C° 0.2 mm 4 mps 742 mmHg 88%
    07:00 +13°C° 0.2 mm 4 mps 742 mmHg 86%
    08:00 +13°C° 0.2 mm 4 mps 742 mmHg 85%
    09:00 +13°C° 0.3 mm 5 mps 743 mmHg 80%
    10:00 +14°C° 0.3 mm 5 mps 743 mmHg 76%
    11:00 +15°C° 0.3 mm 6 mps 744 mmHg 71%
    12:00 +15°C° 0.3 mm 6 mps 744 mmHg 70%
    13:00 +15°C° 0.3 mm 6 mps 744 mmHg 70%
    14:00 +15°C° 0.3 mm 6 mps 745 mmHg 69%
    15:00 +15°C° 0.1 mm 7 mps 745 mmHg 65%
    16:00 +15°C° 0.1 mm 7 mps 745 mmHg 60%
    17:00 +16°C° 0.1 mm 7 mps 746 mmHg 56%
    18:00 +15°C° 0 mm 6 mps 746 mmHg 57%
    19:00 +14°C° 0 mm 6 mps 747 mmHg 58%
    20:00 +13°C° 0 mm 6 mps 747 mmHg 58%
    21:00 +11°C° 0 mm 6 mps 748 mmHg 59%
    22:00 +11°C° 0 mm 6 mps 748 mmHg 60%
    23:00 +10°C° 0 mm 6 mps 749 mmHg 61%

    22 August, Wednesday

    Time Temperature Precipitation Wind Pressure Humidity
    00:00 +10°C° 0 mm 6 mps 749 mmHg 61%
    01:00 +9°C° 0 mm 5 mps 750 mmHg 61%
    02:00 +9°C° 0 mm 5 mps 750 mmHg 61%
    03:00 +9°C° 0 mm 5 mps 751 mmHg 62%
    04:00 +9°C° 0 mm 5 mps 751 mmHg 63%
    05:00 +9°C° 0 mm 5 mps 752 mmHg 64%
    06:00 +10°C° 0 mm 5 mps 752 mmHg 61%
    07:00 +12°C° 0 mm 5 mps 753 mmHg 57%
    08:00 +13°C° 0 mm 5 mps 753 mmHg 53%
    09:00 +14°C° 0 mm 5 mps 753 mmHg 49%
    10:00 +15°C° 0 mm 4 mps 754 mmHg 44%
    11:00 +17°C° 0 mm 4 mps 754 mmHg 40%
    12:00 +18°C° 0 mm 4 mps 754 mmHg 39%
    13:00 +18°C° 0 mm 4 mps 753 mmHg 38%
    14:00 +19°C° 0 mm 4 mps 753 mmHg 37%
    15:00 +19°C° 0 mm 4 mps 753 mmHg 39%
    16:00 +18°C° 0 mm 4 mps 753 mmHg 41%
    17:00 +18°C° 0 mm 4 mps 753 mmHg 43%
    18:00 +17°C° 0.1 mm 4 mps 752 mmHg 51%
    19:00 +15°C° 0.1 mm 4 mps 752 mmHg 60%
    20:00 +14°C° 0.1 mm 4 mps 752 mmHg 69%
    21:00 +14°C° 1.3 mm 4 mps 751 mmHg 77%
    22:00 +14°C° 1.3 mm 4 mps 750 mmHg 86%
    23:00 +13°C° 1.3 mm 4 mps 750 mmHg 95%

    23 August, Thursday

    Time Temperature Precipitation Wind Pressure Humidity
    00:00 +14°C° 1.4 mm 5 mps 749 mmHg 94%
    01:00 +15°C° 1.4 mm 5 mps 748 mmHg 94%
    02:00 +16°C° 1.4 mm 6 mps 748 mmHg 94%
    03:00 +16°C° 1.2 mm 6 mps 747 mmHg 94%
    04:00 +16°C° 1.2 mm 7 mps 747 mmHg 93%
    05:00 +16°C° 1.2 mm 7 mps 746 mmHg 92%
    06:00 +16°C° 0.8 mm 7 mps 746 mmHg 91%
    07:00 +17°C° 0.8 mm 7 mps 746 mmHg 90%
    08:00 +17°C° 0.8 mm 7 mps 746 mmHg 89%
    09:00 +19°C° 0.3 mm 6 mps 746 mmHg 83%
    10:00 +20°C° 0.3 mm 6 mps 747 mmHg 77%
    11:00 +20°C° 0.3 mm 6 mps 747 mmHg 71%
    12:00 +21°C° 0.1 mm 6 mps 747 mmHg 66%
    13:00 +22°C° 0.1 mm 6 mps 748 mmHg 60%
    14:00 +22°C° 0.1 mm 5 mps 748 mmHg 55%
    15:00 +22°C° 0 mm 5 mps 748 mmHg 56%
    16:00 +21°C° 0 mm 5 mps 748 mmHg 57%
    17:00 +21°C° 0 mm 4 mps 748 mmHg 58%
    18:00 +19°C° 0 mm 3 mps 748 mmHg 65%
    19:00 +18°C° 0 mm 3 mps 749 mmHg 72%
    20:00 +16°C° 0 mm 2 mps 749 mmHg 79%
    21:00 +16°C° 0 mm 2 mps 749 mmHg 81%
    22:00 +15°C° 0 mm 2 mps 749 mmHg 84%
    23:00 +15°C° 0 mm 2 mps 750 mmHg 86%

    24 August, Friday

    Time Temperature Precipitation Wind Pressure Humidity
    00:00 +14°C° 0 mm 2 mps 750 mmHg 88%
    01:00 +14°C° 0 mm 2 mps 750 mmHg 89%
    02:00 +14°C° 0 mm 2 mps 750 mmHg 91%
    03:00 +14°C° 0 mm 2 mps 750 mmHg 91%
    04:00 +14°C° 0 mm 2 mps 749 mmHg 92%
    05:00 +13°C° 0 mm 3 mps 749 mmHg 92%
    06:00 +16°C° 0 mm 3 mps 749 mmHg 88%
    07:00 +18°C° 0 mm 4 mps 749 mmHg 84%
    08:00 +19°C° 0 mm 4 mps 749 mmHg 79%
    09:00 +21°C° 0 mm 5 mps 749 mmHg 73%
    10:00 +22°C° 0 mm 5 mps 749 mmHg 67%
    11:00 +23°C° 0 mm 5 mps 749 mmHg 61%
    12:00 +25°C° 0 mm 5 mps 749 mmHg 60%
    13:00 +24°C° 0 mm 6 mps 748 mmHg 58%
    14:00 +26°C° 0 mm 6 mps 748 mmHg 57%
    15:00 +25°C° 0.1 mm 5 mps 748 mmHg 57%
    16:00 +25°C° 0.1 mm 5 mps 748 mmHg 58%
    17:00 +25°C° 0.1 mm 5 mps 748 mmHg 58%
    18:00 +23°C° 0 mm 4 mps 748 mmHg 64%
    19:00 +21°C° 0 mm 4 mps 748 mmHg 69%
    20:00 +20°C° 0 mm 4 mps 748 mmHg 74%
    21:00 +19°C° 0 mm 4 mps 748 mmHg 74%
    22:00 +19°C° 0 mm 4 mps 747 mmHg 75%
    23:00 +19°C° 0 mm 4 mps 747 mmHg 75%
    Show more